Miscellaneous Local Product
Issued by NWS North Platte, NE

Home | Current Version | Previous Version | Text Only | Print | Product List | Glossary On
Versions: 1 2 3 4 5 6 7 8 9 10 11 12 13 14 15 16 17 18 19 20 21 22 23 24 25 26 27 28 29 30 31 32 33 34 35 36 37 38 39 40 41 42 43 44 45 46 47 48 49 50
000
AXUS43 KLBF 260110
MISLBF


WESTERN AND NORTH CENTRAL NEBRASKA HOURLY WEATHER ROUNDUP
NATIONAL WEATHER SERVICE NORTH PLATTE NE
700 PM CST SUN JAN 25 2015

***STATIONS NOT REPORTING VARIABLES SUCH AS SKY/WEATHER OR
PRESSURE ARE PROVIDED BY THE NEBRASKA DEPARTMENT OF
ROADS...RAWS...AND APRS NETWORKS...AND ARE NOT UNDER
NATIONAL WEATHER SERVICE QUALITY CONTROL***

...OBSERVATIONS IN AND NEAR THE EASTERN PANHANDLE OF NEBRASKA...

CITY           SKY/WX    TMP DP  RH WIND       PRES   REMARKS
PINE RIDGE     CLOUDY    43  32  65 SW7       30.00R
CHADRON        CLOUDY    41  33  73 SW8       30.01S
ALLIANCE       MOCLDY    37  31  78 W8        30.04R WCI  31
SIDNEY         CLEAR     41  29  62 W13       30.10R
$$

...OBSERVATIONS IN NORTH CENTRAL NEBRASKA...

CITY           SKY/WX    TMP DP  RH WIND       PRES   REMARKS
VALENTINE      CLOUDY    36  27  69 S3        30.00R
THEDFORD       CLOUDY    41  25  51 CALM      30.03S
AINSWORTH      MOCLDY    31  27  84 S3        30.02R
O`NEILL        CLEAR     36  32  86 SW3       30.04S
ORD            CLEAR     29  24  82 CALM      30.05S
BROKEN BOW     CLEAR     28  23  81 CALM      30.04S
$$

...OBSERVATIONS IN SOUTHWEST NEBRASKA AND FAR NORTHEAST COLORADO...

CITY           SKY/WX    TMP DP  RH WIND       PRES   REMARKS
WRAY           FAIR      45  31  59 CALM      30.11R
HOLYOKE        FAIR      37  30  75 SW3       30.10R
IMPERIAL       CLOUDY    47  32  56 W5        30.08R
OGALLALA       CLOUDY    43  34  70 CALM      30.06S
NORTH PLATTE   PTCLDY    32  21  64 CALM      30.04F
MCCOOK         CLEAR     43  19  38 S7        30.07S
LEXINGTON      CLEAR     32  26  78 S5        30.06S WCI  27
$$

...NORTH PLATTE AREA...

CITY           SKY/WX    TMP DP  RH WIND       PRES   REMARKS
AIRPORT        PTCLDY    32  21  64 CALM      30.04F
$$

...SOME WEATHER OBSERVATIONS FROM AROUND THE REGION...

CITY           SKY/WX    TMP DP  RH WIND       PRES   REMARKS
DENVER         PTCLDY    48  24  39 NE5       30.15R
LARAMIE        CLEAR     37  24  59 VRB3      30.22R
CHEYENNE       CLEAR     44  26  49 NW9       30.15R
SCOTTSBLUFF    PTCLDY    44  33  65 W9        30.08R
RAPID CITY     PTCLDY    36  22  56 CALM      29.95S
PIERRE         CLOUDY    37  29  72 S7        29.94F WCI  32
WINNER         FAIR      36  28  73 S6        30.00S WCI  31
SIOUX FALLS    CLOUDY    33  30  88 W7        30.03R WCI  27
OMAHA          CLOUDY    37  32  82 CALM      30.08S
GRAND ISLAND   CLEAR     30  24  78 CALM      30.08F
KANSAS CITY    CLOUDY    36  30  79 N10       30.08R WCI  28
WICHITA        PTCLDY    44  29  55 N8        30.12R
HAYS           CLEAR     37  18  44 CALM      30.12R
LIBERAL        CLEAR     45  25  45 NW7       30.17R
GOODLAND       CLEAR     40  31  70 CALM      30.13R
$$



USA.gov is the U.S. government's official web portal to all federal, state and local government web resources and services.